STARLINK-37718, 69242

Orbit data source: Space-Track

STARLINK-37718, 69242 is a payload satellite owned by SpaceX/Seattle (US) in LEO that was launched on Fri, 29 May 2026 UTC via an FALCON 9 launch vehicle from the Air Force Eastern Test Range (AFETR). Payload-class satellites include a variety of spacecraft equipped with specific instruments for various scientific and technological missions. These include communications satellites like Starlink; space stations such as the ISS; scientific satellites like the Hubble; Earth observation satellites from companies like Planet Labs, Umbra, and HawkEye 360; GPS; miniature CubeSats for education and research; and military/defense satellites.

Loading next visibility...
Identifier
69242, 2026-117E
Orbit
LEO
Country
Flag of USUS
Related business
Manufacturer
SpaceX/Seattle
Mission
Operational spacecraft
Bus & Motor
STARLINK V2MO, Unknown motor
Mass
575 kg wet, ~530 kg dry
Launch date (UTC)
2026-05-29 (2 weeks ago)
Launch vehicle
FALCON 9
Launch site
Air Force Eastern Test Range (AFETR)
Object type
Payload
Rocket body
Debris
Shape & HBR
Unknown
Radar Cross Section
RCS unknown

Expand to show TLE details & history
Last TLE update: 6 days ago

TLE from 6 days ago
0 STARLINK-37718
1 69242U 26117E   26155.25004630 -.02028187  12366-2 -36059-2 0  9994
2 69242  53.1586 308.8258 0000305  69.1437 270.3271 16.01321508  2084
Epoch: 2026-06-04T06:00Z
TLE epoch observation values (Epoch: 2026-06-04T06:00:04.000Z)
Latitude
-16.47515°
Longitude
-46.61566°
Altitude
275.237 km
Speed
7.742 km/s
True Right ascension
19h 44m 23s
True Declination
-16° 22' 30"
Sunlit
Object was in full shadow at epoch
Visualization orbit readout
Latitude
Unknown
Longitude
Unknown
Altitude
Unknown
Speed
Unknown
Apparent Right ascension
Unknown
Apparent Declination
Unknown
Sunlit
N/A
Visualization observer readout
Local Sidereal Time
13:25:38
Azimuth
Unknown
Elevation
Unknown
Doppler factor
Unknown
Orbital elements
Apogee altitude
271.225 km
Perigee altitude
270.82 km
Semi-major axis
6,649.159 km
Eccentricity
0.00003
Inclination
53.1586°
RAAN
308.8258°
Arg. of periapsis
69.1437°
True anomaly
270.32361°
Mean anomaly
270.3271°
Eccentric anomaly
270.32535°
Mean motion
4.00307 °/min
Orbital period
89.93 mins
BSTAR
-0.0036059
Loading maneuver chart data...
Computing Atmospheric mass density...
Loading historical data...
Loading historical data...
Loading historical data...
Loading historical data...
Loading historical data...
Loading historical data...
Loading historical data...

Documentation

Showing up to 5 results
|